Portsmouth, NH

2:51 PM EDT on July 27, 2017 (GMT -0400)
Pease International Tradeport

Weather History for KPSM - November, 2011

Change the Weather History Date:

Friday, November 4, 2011

  Actual Average Record
Temperature  
Mean Temperature 42 °F -  
Max Temperature 51 °F 50 °F 77 °F (1987)
Min Temperature 32 °F 34 °F 20 °F (1984)
Degree Days  
Heating Degree Days 24    
Moisture  
Dew Point 28 °F    
Average Humidity 56    
Maximum Humidity 79    
Minimum Humidity 33    
Precipitation  
Precipitation 0.00 in - - ()
Sea Level Pressure  
Sea Level Pressure 30.03 in    
Wind  
Wind Speed 10 mph (NW)    
Max Wind Speed 20 mph    
Max Gust Speed 31 mph    
Visibility 10 miles    
Events      
Averages and records for this station are not official NWS values.
T = Trace of Precipitation, MM = Missing Value Source: NWS Daily Summary

Daily Weather History Graph

Daily Weather History Graph

Search for Another Location

Airport or City:

Trip Planner

Search our weather history database for the weather conditions in past years. The results will help you decide how hot, cold, wet, or windy it might be!

Date:

Astronomy

Nov. 04, 2011 Rise Set
Actual Time 7:21 AM EDT 5:31 PM EDT
Civil Twilight 6:51 AM EDT 6:01 PM EDT
Nautical Twilight 6:17 AM EDT 6:35 PM EDT
Astronomical Twilight 5:44 AM EDT 7:08 PM EDT
Moon 2:29 PM EDT (11/4) 1:21 AM EDT (11/4)
Length of Visible Light 11h 09m
Length of Day
10h 10m
Waxing Gibbous, 69% of the Moon is Illuminated
Nov 4
Waxing Gibbous
Nov 10
Full
Nov 18
Last Quarter
Nov 25
New
Dec 2
First Quarter

Hourly Weather History & Observations

Time (EDT) Temp. Windchill Dew Point Humidity Pressure Visibility Wind Dir Wind Speed Gust Speed Precip Events Conditions
12:55 AM 45.5 °F 41.3 °F 39.2 °F 79% 29.87 in 10.0 mi West 8.1 mph - N/A   Mostly Cloudy
1:55 AM 45.5 °F 41.8 °F 39.4 °F 79% 29.87 in 10.0 mi West 6.9 mph - N/A   Overcast
2:55 AM 46.9 °F - 39.7 °F 76% 29.88 in 10.0 mi West 5.8 mph - N/A   Overcast
3:55 AM 47.7 °F - 40.3 °F 76% 29.89 in 10.0 mi WNW 6.9 mph - N/A   Overcast
4:55 AM 46.4 °F 41.5 °F 37.2 °F 70% 29.91 in 10.0 mi NW 10.4 mph - N/A   Overcast
5:55 AM 44.6 °F 39.7 °F 34.7 °F 68% 29.94 in 10.0 mi WNW 9.2 mph - N/A   Mostly Cloudy
6:55 AM 42.8 °F 37.5 °F 32.0 °F 66% 29.95 in 10.0 mi NW 9.2 mph - N/A   Mostly Cloudy
7:55 AM 40.3 °F 36.3 °F 30.6 °F 68% 29.98 in 10.0 mi NW 5.8 mph - N/A   Mostly Cloudy
8:55 AM 42.1 °F 36.6 °F 29.8 °F 62% 30.00 in 10.0 mi NW 9.2 mph - N/A   Mostly Cloudy
9:55 AM 43.2 °F 38.4 °F 29.1 °F 58% 30.01 in 10.0 mi NW 8.1 mph - N/A   Mostly Cloudy
10:55 AM 45.7 °F 39.8 °F 26.6 °F 47% 30.00 in 10.0 mi NW 12.7 mph 21.9 mph N/A   Mostly Cloudy
11:55 AM 48.0 °F - 25.2 °F 41% 30.00 in 10.0 mi NW 19.6 mph 23.0 mph N/A   Scattered Clouds
12:55 PM 50.4 °F - 24.6 °F 37% 29.99 in 10.0 mi NNW 17.3 mph - N/A   Scattered Clouds
1:55 PM 50.4 °F - 22.3 °F 33% 30.00 in 10.0 mi NW 13.8 mph 23.0 mph N/A   Scattered Clouds
2:55 PM 48.0 °F - 23.5 °F 38% 30.01 in 10.0 mi NNW 11.5 mph - N/A   Scattered Clouds
3:55 PM 49.8 °F - 21.6 °F 33% 30.04 in 10.0 mi NNW 19.6 mph 31.1 mph N/A   Mostly Cloudy
4:55 PM 45.9 °F 39.1 °F 23.2 °F 41% 30.07 in 10.0 mi NW 16.1 mph 27.6 mph N/A   Scattered Clouds
5:55 PM 42.8 °F 34.8 °F 20.3 °F 41% 30.12 in 10.0 mi NNW 17.3 mph - N/A   Partly Cloudy
6:55 PM 41.0 °F 32.8 °F 21.0 °F 45% 30.16 in 10.0 mi NNW 16.1 mph 25.3 mph N/A   Partly Cloudy
7:55 PM 37.8 °F 30.2 °F 21.9 °F 53% 30.18 in 10.0 mi NW 11.5 mph - N/A   Partly Cloudy
8:55 PM 37.8 °F 30.2 °F 21.6 °F 52% 30.21 in 10.0 mi North 11.5 mph - N/A   Clear
9:55 PM 37.6 °F 30.0 °F 21.9 °F 53% 30.23 in 10.0 mi North 11.5 mph - N/A   Clear
10:55 PM 33.4 °F 26.6 °F 22.5 °F 64% 30.24 in 10.0 mi WNW 8.1 mph - N/A   Clear
11:55 PM 32.7 °F 28.3 °F 21.9 °F 64% 30.25 in 10.0 mi WNW 4.6 mph - N/A   Clear